Retour au catalogue

STARLINK-3879

ActifCommunicationsVLEO
NORAD 52473·PAYLOAD·🇺🇸 United States

Lancé May 6, 2022 depuis Cape Canaveral Space Force Station

Loading…

Prochains Passages (prochaines 24 heures)

TLE

FraisSource: CelesTrak SupGP

Époque: Sep 14, 2026, 21:11 UTC

1 52473C 22049Y   26257.88312500  .00035500  00000+0  10775-2 0  2578
2 52473  53.1578 280.2420 0001192  80.0891 124.9485 15.33523154    15

Suivez STARLINK-3879 en temps réel avec AllMySat

Download on the App Store